Location: Hawks Ness
(60.2333°N, 1.1667°W)
Time: 21:20:33
(UTC+00:00)

Cosmos 2341 Rocket - Pass Details

Date: 22 October 2019
Orbit: 969 x 1004 km, 82.9° (Epoch: 21 November)

Event Time Altitude Azimuth Distance (km) Brightness Sun altitude
Rises 06:11:26 0° 214° (SSW) 3,667 6.8 -6.8°
Reaches altitude 10° 06:14:02 10° 219° (SW) 2,719 6.1 -6.5°
Maximum altitude 06:20:03 49° 294° (WNW) 1,235 4.2 -5.7°
Drops below altitude 10° 06:26:06 10° 9° (N) 2,727 6.3 -5.0°
Sets 06:28:43 0° 15° (NNE) 3,678 7.0 -4.7°
